STARLINK-1582, 46043

Orbit data source: Space-Track

STARLINK-1582, 46043 is a payload satellite owned by SpaceX/Seattle (US) in LEO that was launched on Fri, 07 Aug 2020 UTC via an FALCON 9 launch vehicle from the Air Force Eastern Test Range (AFETR). Payload-class satellites include a variety of spacecraft equipped with specific instruments for various scientific and technological missions. These include communications satellites like Starlink; space stations such as the ISS; scientific satellites like the Hubble; Earth observation satellites from companies like Planet Labs, Umbra, and HawkEye 360; GPS; miniature CubeSats for education and research; and military/defense satellites.

Loading next visibility...
Identifier
46043, 2020-055S
Orbit
LEO
Country
Flag of USUS
Related business
Manufacturer
SpaceX/Seattle
Mission
Operational Commercial Communications
Bus & Motor
STARLINK, Unknown motor
Mass
260 kg wet, ~248 kg dry
Launch date (UTC)
2020-08-07 (6 years ago)
Launch vehicle
FALCON 9
Launch site
Air Force Eastern Test Range (AFETR)
Object type
Payload
Rocket body
Debris
Shape & HBR
Box + 1 Pan, 10.1 m
Radar Cross Section
13.562 m², Large (>1 m²)

Expand to show TLE details & history
Last TLE update: 12 hours ago

TLE from 12 hours ago
0 STARLINK-1582
1 46043U 20055S   26263.37570600 -.00000071  00000-0  94745-5 0  9999
2 46043  53.1597 300.6843 0001219  74.9792 285.1345 15.31699385338714
Epoch: 2026-09-20T09:01Z
TLE epoch observation values (Epoch: 2026-09-20T09:01:00.998Z)
Latitude
0.00004°
Longitude
166.15939°
Altitude
471.424 km
Speed
7.632 km/s
True Right ascension
20h 02m 44s
True Declination
0° 00' 00"
Sunlit
Object was in full shadow at epoch
Visualization orbit readout
Latitude
Unknown
Longitude
Unknown
Altitude
Unknown
Speed
Unknown
Apparent Right ascension
Unknown
Apparent Declination
Unknown
Sunlit
N/A
Visualization observer readout
Local Sidereal Time
14:01:10
Azimuth
Unknown
Elevation
Unknown
Doppler factor
Unknown
Orbital elements
Apogee altitude
471.833 km
Perigee altitude
470.164 km
Semi-major axis
6,849.135 km
Eccentricity
0.00012
Inclination
53.1597°
RAAN
300.6843°
Arg. of periapsis
74.9792°
True anomaly
285.12102°
Mean anomaly
285.1345°
Eccentric anomaly
285.12776°
Mean motion
3.82904 °/min
Orbital period
94.02 mins
BSTAR
0.0000094745
Loading maneuver chart data...
Computing Atmospheric mass density...

Documentation

Showing up to 5 results
|